ELECTRON KICK STAGE R/B, 58901

Orbit data source: Space-Track

ELECTRON KICK STAGE R/B, 58901 is space debris in SSO originally from a launch on Wed, 31 Jan 2024 UTC launched from the Rocket Lab Launch Complex (RLLC). Debris objects in space refer to the collection of defunct objects orbiting the Earth. Examples of debris include non-operational satellites, rocket bodies, and fragments generated from explosions, collisions, or faulty payload assembly.

Loading next visibility...
Identifier
58901, 2024-022C
Orbit
SSO
Country
Flag of USUS
Related business
Manufacturer
Rocket Lab
Mission
Spacecraft
Bus & Motor
KICK STAGE, CURIE
Mass
~43 kg wet, ~43 kg dry
Launch date (UTC)
2024-01-31 (2 years ago)
Launch vehicle
Unknown
Launch site
Rocket Lab Launch Complex (RLLC)
Object type
Payload
Rocket body
Debris
Shape & HBR
Trunc Cone, 0.7 m
Radar Cross Section
0.760 m², Medium (>0.1 m² and < 1m²)

Expand to show TLE details & history
Last TLE update: 14 hours ago

TLE from 14 hours ago
0 ELECTRON KICK STAGE R/B
1 58901U 24022C   25258.57407904  .00023840  00000-0  67471-3 0  9996
2 58901  97.4394 104.2837 0009562  15.0953 345.0574 15.36253848 90328
Epoch: 2025-09-15T13:46Z
TLE epoch observation values (Epoch: 2025-09-15T13:46:40.429Z)
Latitude
-0.00003°
Longitude
-97.16153°
Altitude
453.994 km
Speed
7.644 km/s
True Right ascension
06h 57m 08s
True Declination
0° 00' 00"
Sunlit
Object was in daylight at epoch
Visualization orbit readout
Latitude
Unknown
Longitude
Unknown
Altitude
Unknown
Speed
Unknown
Apparent Right ascension
Unknown
Apparent Declination
Unknown
Sunlit
N/A
Visualization observer readout
Local Sidereal Time
20:31:25
Azimuth
Unknown
Elevation
Unknown
Doppler factor
Unknown
Orbital elements
Apogee altitude
460.677 km
Perigee altitude
447.611 km
Semi-major axis
6,832.281 km
Eccentricity
0.00096
Inclination
97.4394°
RAAN
104.2837°
Arg. of periapsis
15.0953°
True anomaly
345.02911°
Mean anomaly
345.0574°
Eccentric anomaly
345.04326°
Mean motion
3.84321 °/min
Orbital period
93.67 mins
BSTAR
0.00067471
Loading maneuver chart data...
Computing Atmospheric mass density...
Loading historical data...
Loading historical data...
Loading historical data...
Loading historical data...
Loading historical data...
Loading historical data...
Loading historical data...

Documentation

Showing up to 5 results
|